ISS
1 25544U 98067A 12264.85068697 .00012477 00000-0 22512-3 0 3376
2 25544 051.6501 005.8241 0018299 083.4530 012.3090 15.49986975792884
CO-58
1 28895U 05043F 12263.61520876 .00000482 00000-0 10771-3 0 02810
2 28895 097.9006 125.6737 0016729 211.7931 148.2277 14.60745436367440
FALCON
1 30776U 07006E 12264.80038212 .00003022 00000-0 19397-3 0 4416
2 30776 035.4321 052.5540 0001251 094.2947 265.7915 15.08211491304697
MAST
1 31126U 07012K 12264.58877668 .00000196 00000-0 53828-4 0 5625
2 31126 097.8758 270.1207 0093599 172.6549 187.6046 14.54253593288132
CAPE1
1 31130U 07012P 12264.49701181 .00000275 00000-0 72560-4 0 5729
2 31130 097.8856 266.3713 0101125 186.8348 173.1481 14.53065437287616
COMPASS
1 32787U 08021E 12263.65806792 .00001166 00000-0 14490-3 0 04153
2 32787 097.7921 322.8746 0016148 109.2989 250.9980 14.84335641237828
AAUSAT2
1 32788U 08021F 12263.67376070 .00001686 00000-0 20502-3 0 04076
2 32788 097.7948 323.3276 0015819 109.4936 250.7983 14.84687954237851
DO-64
1 32789U 08021G 12264.76367937 .00002720 00000-0 31358-3 0 4228
2 32789 097.8042 326.7945 0015607 103.2497 257.0453 14.86419870238076
CO-66
1 32791U 08021J 12263.82155529 .00001069 00000-0 13540-3 0 04058
2 32791 097.7887 322.6950 0017077 110.5884 249.7091 14.83694205237776
RS-30
1 32953U 08025A 12264.90973255 .00000010 00000-0 00000 0 0 1589
2 32953 082.5001 235.6047 0020276 097.0623 263.2760 12.43027804196453
PHARMSAT
1 35002U 09028B 12226.86484473 .07728342 73476-5 57159-3 0 789
2 35002 040.4341 050.6671 0012079 300.9773 059.0492 16.39309245183554
METEOR-M
1 35865U 09049A 12264.78187189 -.00000019 00000-0 11141-4 0 7950
2 35865 098.6444 317.2645 0002957 121.0654 239.0812 14.21869220156185
RS-38
1 35869U 09049E 12264.71829117 .00000030 00000-0 33282-4 0 7829
2 35869 098.6396 317.1813 0005069 126.5897 233.5747 14.22087424156193
JUGNU
1 37839U 11058B 12263.08463629 .00000620 00000-0 19019-3 0 02306
2 37839 019.9591 149.3875 0019439 176.4778 183.5649 14.12082165048535
SRMSAT
1 37841U 11058D 12263.90389899 .00000264 00000-0 00000-0 0 02341
2 37841 019.9697 151.1619 0012085 151.9329 208.1728 14.10162034048581
RAX-2
1 37853U 11061D 12263.81064625 .00004066 00000-0 32468-3 0 02974
2 37853 101.7082 347.0971 0244275 081.0342 281.8420 14.80791168048406
AUBIESAT
1 37854U 11061E 12263.80656351 .00004177 00000-0 32753-3 0 02933
2 37854 101.7129 347.4709 0245291 080.2923 282.5886 14.81244898048393
HRBE
1 37855U 11061F 12264.84388356 .00004292 00000-0 33751-3 0 2876
2 37855 101.7109 348.9029 0245580 077.4359 285.4194 14.81070037 48548
RS-39
1 38051U 11062C 12264.75216435 .00007605 00000-0 30590-3 0 7193
2 38051 051.6350 063.9490 0012697 021.9004 172.4553 15.25802038 36551
E-STAR
1 38079U 12006C 12264.69805543 .00047145 00000-0 11573-2 0 5188
2 38079 069.4784 096.4579 0714419 126.8899 239.9906 14.21079701 31123
GOLIAT
1 38085U 12006J 12264.68893897 .00044637 00000-0 10965-2 0 4864
2 38085 069.4848 097.0943 0719741 127.4545 239.4886 14.19940247 31100
HORYU-2
1 38340U 12025D 12264.32131936 .00000883 00000-0 15494-3 0 1550
2 38340 098.1820 204.3011 0013572 033.3053 326.9021 14.70175830 18451
RS-40
1 38736U 12041D 12264.71441186 .00000010 00000-0 00000 0 0 577
2 38736 082.4812 323.1480 0018548 192.1221 167.9424 12.42646496 6776
PROITERES
1 38756U 12047B 12264.76510160 .00000302 00000-0 54180-4 0 475
2 38756 098.2853 330.4851 0011542 242.2842 117.7196 14.73874215 1709
AENEAS
1 38760U 0 12263.51384741 .00001219 00000-0 12621-3 0 00125
2 38760 064.6718 023.4550 0219105 287.6245 175.2963 14.79106966000810
CSSWE
1 38761U 0 12261.82383910 .00001382 00000-0 14187-3 0 00103
2 38761 064.6714 028.6390 0218654 288.2530 172.9518 14.78858418000565
CP5
1 38763U 00000 12258.03722222 0.00000000 00000-0 00000-0 0 0008
2 38763 66.2600 30.4300 0202000 308.7900 155.8234 14.79897280000003
